STARLINK-3884, 52497

Orbit data source: Space-Track

STARLINK-3884, 52497 is a payload satellite owned by SpaceX/Seattle (US) in LEO that was launched on Fri, 06 May 2022 UTC via an FALCON 9 launch vehicle from the Air Force Eastern Test Range (AFETR). Payload-class satellites include a variety of spacecraft equipped with specific instruments for various scientific and technological missions. These include communications satellites like Starlink; space stations such as the ISS; scientific satellites like the Hubble; Earth observation satellites from companies like Planet Labs, Umbra, and HawkEye 360; GPS; miniature CubeSats for education and research; and military/defense satellites.

Loading next visibility...
Identifier
52497, 2022-049AY
Orbit
LEO
Country
Flag of USUS
Related business
Manufacturer
SpaceX/Seattle
Mission
Operational Commercial Communications
Bus & Motor
STARLINK, Unknown motor
Mass
297 kg wet, ~220 kg dry
Launch date (UTC)
2022-05-06 (4 years ago)
Launch vehicle
FALCON 9
Launch site
Air Force Eastern Test Range (AFETR)
Object type
Payload
Rocket body
Debris
Shape & HBR
Box + 1 Pan, 10.1 m
Radar Cross Section
13.562 m², Large (>1 m²)

Expand to show TLE details & history
Last TLE update: 1 day ago

TLE from 1 day ago
0 STARLINK-3884
1 52497U 22049AY  25348.49960196  .00002059  00000-0  14744-3 0  9999
2 52497  53.2178  71.5545 0001242  78.9949 281.1183 15.08831970199530
Epoch: 2025-12-14T11:59Z
TLE epoch observation values (Epoch: 2025-12-14T11:59:25.609Z)
Latitude
-0°
Longitude
168.28616°
Altitude
540.5 km
Speed
7.593 km/s
True Right ascension
04h 46m 13s
True Declination
0° 00' 00"
Sunlit
Object was in full shadow at epoch
Visualization orbit readout
Latitude
Unknown
Longitude
Unknown
Altitude
Unknown
Speed
Unknown
Apparent Right ascension
Unknown
Apparent Declination
Unknown
Sunlit
N/A
Visualization observer readout
Local Sidereal Time
18:07:57
Azimuth
Unknown
Elevation
Unknown
Doppler factor
Unknown
Orbital elements
Apogee altitude
540.872 km
Perigee altitude
539.154 km
Semi-major axis
6,918.15 km
Eccentricity
0.00012
Inclination
53.2178°
RAAN
71.5545°
Arg. of periapsis
78.9949°
True anomaly
281.10433°
Mean anomaly
281.1183°
Eccentric anomaly
281.11132°
Mean motion
3.77188 °/min
Orbital period
95.44 mins
BSTAR
0.00014744
Loading maneuver chart data...
Computing Atmospheric mass density...
Loading historical data...
Loading historical data...
Loading historical data...
Loading historical data...
Loading historical data...
Loading historical data...
Loading historical data...

Documentation

Showing up to 5 results
|